Showing default

HULIANWANG DIGUI-15, 62975

Orbit data source: Space-Track

HULIANWANG DIGUI-15, 62975 is a payload satellite owned by Zhongguo Xingwang (CN) in LEO that was launched on Tue, 11 Feb 2025 UTC via a CHANG ZHENG 8A launch vehicle from the Wenchang Satellite Launch Center (WSC). Payload-class satellites include a variety of spacecraft equipped with specific instruments for various scientific and technological missions. These include communications satellites like Starlink; space stations such as the ISS; scientific satellites like the Hubble; Earth observation satellites from companies like Planet Labs, Umbra, and HawkEye 360; GPS; miniature CubeSats for education and research; and military/defense satellites.

Loading next visibility...
Identifier
62975, 2025-030E
Orbit
LEO
Country
Flag of CNCN / PRC
Related business
Manufacturer
CAST
Mission
Operational Civil Communications
Bus & Motor
GUOWANG C, Unknown motor
Mass
~800 kg wet, ~800 kg dry
Launch date (UTC)
2025-02-11 (9 months ago)
Launch vehicle
CHANG ZHENG 8A
Launch site
Wenchang Satellite Launch Center (WSC)
Object type
Payload
Rocket body
Debris
Shape & HBR
Box + 2 Pan, 2.1 m
Radar Cross Section
5.935 m², Large (>1 m²)

Expand to show TLE details & history
Last TLE update: 15 hours ago

TLE from 15 hours ago
0 HULIANWANG DIGUI-15
1 62975U 25030E   25312.79306093 -.00000060  00000-0  13709-3 0  9999
2 62975  50.0032 306.2284 0000895 247.8039 112.2738 13.29327280 36540
Epoch: 2025-11-08T19:02Z
TLE epoch observation values (Epoch: 2025-11-08T19:02:00.464Z)
Latitude
-0.00003°
Longitude
-27.49114°
Altitude
1,150.063 km
Speed
7.279 km/s
True Right ascension
20h 24m 54s
True Declination
0° 00' 00"
Sunlit
Object was in daylight at epoch
Visualization orbit readout
Latitude
Unknown
Longitude
Unknown
Altitude
Unknown
Speed
Unknown
Apparent Right ascension
Unknown
Apparent Declination
Unknown
Sunlit
N/A
Visualization observer readout
Local Sidereal Time
06:10:30
Azimuth
Unknown
Elevation
Unknown
Doppler factor
Unknown
Orbital elements
Apogee altitude
1,150.68 km
Perigee altitude
1,149.333 km
Semi-major axis
7,528.144 km
Eccentricity
0.00009
Inclination
50.0032°
RAAN
306.2284°
Arg. of periapsis
247.8039°
True anomaly
112.28329°
Mean anomaly
112.2738°
Eccentric anomaly
112.27855°
Mean motion
3.32285 °/min
Orbital period
108.34 mins
BSTAR
0.00013709
Loading maneuver chart data...
Computing Atmospheric mass density...
Loading historical data...
Loading historical data...
Loading historical data...
Loading historical data...
Loading historical data...
Loading historical data...
Loading historical data...

Documentation

Showing up to 5 results
|